Location: *
(45.1333°S, 169.6333°W)
Time: 21:22:51
(UTC+00:00)

USA 215 - Pass Details

Date: 26 May 2022
Orbit: 1099 x 1108 km, 123.0° (Epoch: 10 June)

Event Time Altitude Azimuth Distance (km) Brightness Sun altitude
Exits shadow 06:17:17 - 25° (NNE) 3,367 5.6 -25.5°
Reaches altitude 10° 06:18:23 10° 22° (NNE) 2,973 5.4 -25.7°
Maximum altitude 06:24:35 44° 311° (NW) 1,510 4.2 -26.8°
Drops below altitude 10° 06:30:51 10° 240° (WSW) 2,994 6.2 -27.9°
Sets 06:33:31 0° 234° (SW) 3,956 6.9 -28.4°
